Torna al catalogo

COSMOS 1275 DEB

AttivoPO
NORAD 42112·DEBRIS·🇷🇺 Russia

Lanciato Jun 4, 1981 da Plesetsk Cosmodrome

Loading…

Prossimi Passaggi (prossime 24 ore)

TLE

AggiornatoSource: Space-Track

Epoca: Sep 13, 2026, 06:16 UTC

1 42112U 81053PY  26256.26166117  .00004471  00000-0  10426-2 0  9999
2 42112  82.8398  83.3577 0012617 112.8797 247.3737 14.54575419655379

Traccia COSMOS 1275 DEB in tempo reale con AllMySat

Download on the App Store